STARLINK-34127, 63810

Orbit data source: Space-Track

STARLINK-34127, 63810 is a payload satellite owned by SpaceX/Seattle (US) in LEO that was launched on Sun, 04 May 2025 UTC via an FALCON 9 launch vehicle from the Air Force Eastern Test Range (AFETR). Payload-class satellites include a variety of spacecraft equipped with specific instruments for various scientific and technological missions. These include communications satellites like Starlink; space stations such as the ISS; scientific satellites like the Hubble; Earth observation satellites from companies like Planet Labs, Umbra, and HawkEye 360; GPS; miniature CubeSats for education and research; and military/defense satellites.

Loading next visibility...
Identifier
63810, 2025-092G
Orbit
LEO
Country
Flag of USUS
Related business
Manufacturer
SpaceX/Seattle
Mission
Operational Commercial Communications
Bus & Motor
STARLINK V2MO, Unknown motor
Mass
575 kg wet, ~530 kg dry
Launch date (UTC)
2025-05-04 (1 year ago)
Launch vehicle
FALCON 9
Launch site
Air Force Eastern Test Range (AFETR)
Object type
Payload
Rocket body
Debris
Shape & HBR
Box + 2 Pan, 17.7 m
Radar Cross Section
36.964 m², Large (>1 m²)

Expand to show TLE details & history
Last TLE update: 19 hours ago

TLE from 19 hours ago
0 STARLINK-34127
1 63810U 25092G   26127.26023551  .00012749  00000-0  47218-3 0  9996
2 63810  43.0025 201.6541 0001570 280.1196  79.9479 15.27567008 57573
Epoch: 2026-05-07T06:14Z
TLE epoch observation values (Epoch: 2026-05-07T06:14:44.348Z)
Latitude
0.00003°
Longitude
-117.13958°
Altitude
482.676 km
Speed
7.626 km/s
True Right ascension
13h 26m 36s
True Declination
0° 00' 00"
Sunlit
Object was in full shadow at epoch
Visualization orbit readout
Latitude
Unknown
Longitude
Unknown
Altitude
Unknown
Speed
Unknown
Apparent Right ascension
Unknown
Apparent Declination
Unknown
Sunlit
N/A
Visualization observer readout
Local Sidereal Time
09:17:24
Azimuth
Unknown
Elevation
Unknown
Doppler factor
Unknown
Orbital elements
Apogee altitude
486.11 km
Perigee altitude
483.955 km
Semi-major axis
6,863.17 km
Eccentricity
0.00016
Inclination
43.0025°
RAAN
201.6541°
Arg. of periapsis
280.1196°
True anomaly
79.96562°
Mean anomaly
79.9479°
Eccentric anomaly
79.95676°
Mean motion
3.8173 °/min
Orbital period
94.31 mins
BSTAR
0.00047218
Loading maneuver chart data...
Computing Atmospheric mass density...
Loading historical data...
Loading historical data...
Loading historical data...
Loading historical data...
Loading historical data...
Loading historical data...
Loading historical data...

Documentation

Showing up to 5 results
|